Regional Weather Roundup
Issued by NWS New Orleans/Baton Rouge, LA

Home | Current Version | Previous Version | Text Only | Print | Product List | Glossary On
Versions: 1 2 3 4 5 6 7 8 9 10 11 12 13 14 15 16 17 18 19 20 21 22 23 24 25 26 27 28 29 30 31 32 33 34 35 36 37 38 39 40 41 42 43 44 45 46 47 48 49 50
000
ASUS44 KLIX 162010
RWRLIX
NEW ORLEANS REGIONAL WEATHER ROUNDUP
NATIONAL WEATHER SERVICE NEW ORLEANS LA
300 PM CDT TUE SEP 16 2014

NOTE: "FAIR" INDICATES FEW OR NO CLOUDS BELOW 12,000 FEET WITH NO
      SIGNIFICANT WEATHER AND/OR OBSTRUCTIONS TO VISIBILITY.
      SKY/WX - SKY CONDITION AND SIGNIFICANT WEATHER.
      TMP - AIR TEMPERATURE.     DP    - DEWPOINT TEMPERATURE.
      RH  - RELATIVE HUMIDITY.   PRES  - PRESSURE.
      HI  - HEAT INDEX.          WCI   - WIND CHILL INDEX.

*  THESE STATIONS ARE NOT NWS OR FAA STATIONS AND ARE NOT UNDER
   NWS QUALITY CONTROL.

LAZ038-040-048-061>063-065>067-069-162100-
SOUTHEAST LOUISIANA

CITY           SKY/WX    TMP DP  RH WIND       PRES   REMARKS
N.O. AUDUBON     N/A     86  76  71 MISG        N/A  HX  96
N.O. INTL ARPT PTSUNNY   85  76  74 S16       29.99F
N.O. LAKEFRONT PTSUNNY   86  73  65 SE7       30.00F
N.O. DOWNTOWN* MOCLDY    88  72  58 S8        30.00F
SLIDELL        CLOUDY    81  74  79 SW5       29.99F
BATON ROUGE    PTSUNNY   84  72  67 NE9G18    30.00F THUNDER
BOOTHVILLE     LGT RAIN  79  77  94 SW6       30.02F
BELLE CHASSE   PTSUNNY   84  73  69 S13       30.00F
BOGALUSA*      MOCLDY    90  73  57 SE5       29.99F HX  97
GALLIANO*      NOT AVBL
NEW ROADS*       N/A     88  76  67 N16       29.99F HX  98
GONZALES*        N/A     86  74  68 E6        29.97F THUNDER
HAMMOND*       CLOUDY    79  68  69 CALM      30.00F
HOUMA*         PTSUNNY   88  73  62 SW9       30.00F HX  96
PORT FOURCHON* NOT AVBL

$$

MSZ070-080>082-162100-
SOUTHERN MISSISSIPPI

CITY           SKY/WX    TMP DP  RH WIND       PRES   REMARKS
MCCOMB         MOSUNNY   90  68  48 N8        29.99F
GULFPORT       LGT RAIN  77  75  93 SW7       29.98F FOG
BILOXI         LGT RAIN  81  77  89 SW7       29.97F
PASCAGOULA     MOSUNNY   81  77  88 VRB3      29.98F
STENNIS ARPT*  TSTM      73  70  88 SE6       30.04R

$$

COASTAL OBSERVATIONS
LAKE AND NEARSHORE STATIONS

STATION/POSITION TIME  TEMP    WIND        PRES    WAVE
                       AIR SEA DIR/SP/G            HT/PER
                 (UTC) (F)     (DEG/KT/KT) (MB)    (FT/S)
PASCAGOULA       2000   85     220/  8/ 10 1014.5
WAVELAND YACHT   2000   75      20/  6/ 13 1015.3
GRAND ISLE       2000   82 85  260/ 11/ 13 1017.3
SOUTHWEST PASS   2000   84 90  260/ 17/ 19 1017.0
NEW CANAL        2000   87 84   90/  2/  5 1016.3
SHELL BEACH      2000   84 80  200/  6/ 10 1016.0

OFFSHORE STATIONS

STATION/POSITION TIME  TEMP    WIND        PRES    WAVE
                       AIR SEA DIR/SP/G            HT/PER
                 (UTC) (F)     (DEG/KT/KT) (MB)    (FT/S)
64 S DAUPHIN ISL 1946   80 85  240/ 12/ 14 1016.6    2/ 7

$$




USA.gov is the U.S. government's official web portal to all federal, state and local government web resources and services.